Location: Hesters Ferry
(33.9426°N, 82.5501°W)
Time: 17:31:41
(UTC+00:00)

BlueWalker 3 - Visible Passes

Search period start: 15 June 2025 00:00
Search period end: 25 June 2025 00:00
Orbit: 460 x 472 km, 53.2° (Epoch: 14 June)

Date Brightness Start Highest point End Pass type
(mag) Time Alt. Az. Time Alt. Az. Time Alt. Az.
15 Jun 3.8 09:36:03 10° S 09:38:57 23° SE 09:41:52 10° ENE visible
16 Jun 4.0 09:04:11 10° S 09:06:42 18° SE 09:09:13 10° E visible
17 Jun 4.2 08:33:01 12° SSE 08:34:27 14° SE 08:36:23 10° E visible
18 Jun 4.5 08:02:06 11° SE 08:02:12 11° ESE 08:03:02 10° ESE visible
18 Jun 2.0 09:36:02 11° SW 09:39:27 60° NW 09:43:03 10° NE visible
19 Jun 1.7 09:05:01 24° SW 09:07:05 79° NW 09:10:44 10° NE visible
20 Jun 1.7 08:33:55 52° SSW 08:34:43 80° SE 08:38:22 10° NE visible
21 Jun 2.2 08:02:44 55° E 08:02:44 55° E 08:05:57 10° NE visible
21 Jun 4.1 09:38:03 10° WNW 09:40:19 16° NNW 09:42:35 10° N visible
22 Jun 3.6 07:31:29 28° ENE 07:31:29 28° ENE 07:33:28 10° ENE visible
22 Jun 3.9 09:05:24 11° WNW 09:07:50 18° NW 09:10:27 10° NNE visible
23 Jun 4.5 07:00:10 15° ENE 07:00:10 15° ENE 07:00:56 10° ENE visible
23 Jun 3.6 08:34:04 18° WNW 08:35:20 22° NW 08:38:15 10° NNE visible
24 Jun 3.4 08:02:41 26° NW 08:02:51 26° NW 08:05:59 10° NNE visible
